This is the latest recevied weather packets stored in our database for station/object N5PRN. If no packets are shown the sender has not sent any weather packets the latest 10 day(s).
| Time | Temp. | Humidity | Pressure | Rain* | Wind** | Luminosity | Snow |
|---|---|---|---|---|---|---|---|
| 1777574361 | 17.22° C | 96% | 1012.3 hPa | 0 mm | - | 99 W/m² | - |
| 1777574056 | 17.22° C | 96% | 1012.7 hPa | 0 mm | - | 144 W/m² | - |
| 1777573751 | 17.22° C | 96% | 1012.3 hPa | 0 mm | - | 227 W/m² | - |
| 1777573448 | 17.22° C | 96% | 1012.7 hPa | 0 mm | - | 157 W/m² | - |
| 1777573143 | 17.22° C | 96% | 1012.6 hPa | 0 mm | - | 133 W/m² | - |
| 1777572840 | 17.22° C | 96% | 1012.6 hPa | 0 mm | - | 135 W/m² | - |
| 1777572536 | 17.22° C | 96% | 1012.3 hPa | 0 mm | - | 189 W/m² | - |
| 1777572231 | 17.22° C | 96% | 1012.3 hPa | 0 mm | - | 295 W/m² | - |
| 1777571927 | 16.67° C | 96% | 1012.7 hPa | 0 mm | - | 225 W/m² | - |
| 1777571622 | 16.67° C | 96% | 1013 hPa | 0 mm | - | 167 W/m² | - |
| 1777571320 | 16.67° C | 96% | 1013.1 hPa | 0 mm | - | 139 W/m² | - |
| 1777571015 | 16.67° C | 96% | 1013 hPa | 0 mm | - | 140 W/m² | - |
| 1777570712 | 16.67° C | 96% | 1013.3 hPa | 0 mm | - | 106 W/m² | - |
| 1777570409 | 16.67° C | 96% | 1013.4 hPa | 0 mm | - | 87 W/m² | - |
| 1777570104 | 16.67° C | 96% | 1013.6 hPa | 0 mm | - | 103 W/m² | - |
| 1777569800 | 17.22° C | 96% | 1013.2 hPa | 0 mm | - | 84 W/m² | - |
| 1777569496 | 16.67° C | 96% | 1013.4 hPa | 0 mm | - | 102 W/m² | - |
| 1777569193 | 17.22° C | 96% | 1013.4 hPa | 0 mm | - | 95 W/m² | - |
| 1777568889 | 16.67° C | 96% | 1013 hPa | 0 mm | - | 118 W/m² | - |
| 1777568586 | 16.67° C | 96% | 1013.2 hPa | 0 mm | - | 141 W/m² | - |
| 1777568284 | 16.67° C | 99% | 1013.3 hPa | 0 mm | - | 180 W/m² | - |
| 1777567980 | 16.67° C | 99% | 1013.1 hPa | 0 mm | - | 151 W/m² | - |
| 1777567676 | 16.67° C | 99% | 1013.4 hPa | 0 mm | - | 117 W/m² | - |
| 1777567373 | 17.22° C | 99% | 1013.3 hPa | 0 mm | - | 107 W/m² | - |
| 1777567071 | 17.22° C | 99% | 1013.5 hPa | 0 mm | - | 138 W/m² | - |
* Rain latest hour (hover to see other rain measurements)
** Current wind speed in m/s (hover to see current wind gust speed)